Theta_e
324 322 322 323 326 324 325 325 323 323 324 324 325 324 324 325 324 322 322 323 321 322 321 321 320 321 322 322 320 321 318 318 316 319 324 324 322 322 320 320 320 320 320
323 324 323 325 324 324 325 325 323 323 323 325 326 325 325 325 324 323 324 324 323 324 322 322 320 324 321 321 319 317 318 319 320 317 321 321 320 321 320 319 319 319 318
324 324 324 324 324 324 324 325 324 324 324 324 324 324 325 325 324 324 325 324 324 323 323 323 322 323 320 322 319 319 319 322 321 319 318 322 319 321 319 320 319 320 322
325 324 323 323 323 323 324 324 325 325 326 325 325 327 326 325 326 326 324 322 323 324 325 325 324 323 321 322 322 322 322 321 319 319 318 318 318 321 320 318 317 319 316
323 325 322 323 324 324 324 325 325 324 327 327 327 324 323 324 324 323 323 323 323 324 325 325 325 323 321 321 323 323 322 320 318 318 317 317 317 316 316 316 314 314 313
324 325 326 324 325 323 323 324 323 323 323 322 323 320 319 320 306 310 319 322 322 322 323 322 323 319 316 312 315 316 320 320 319 318 317 315 316 316 316 316 314 313 309
325 326 326 325 325 324 325 324 321 320 320 319 318 318 315 313 302 304 310 322 320 320 320 322 323 320 318 316 309 310 311 311 316 319 317 316 315 317 316 315 314 313 312
325 327 326 326 324 325 324 322 320 318 318 318 316 315 314 312 301 303 309 321 321 324 321 324 321 320 320 320 320 319 319 320 320 321 320 319 319 319 318 317 315 312 312
325 325 326 325 324 324 322 321 320 320 318 318 317 314 313 313 301 306 318 324 323 322 324 324 322 320 304 306 319 318 317 315 306 305 306 305 303 305 312 317 312 310 308
324 325 326 326 325 324 322 321 320 320 323 322 319 316 310 316 299 304 317 322 319 319 319 318 308 315 302 305 320 318 316 316 317 316 314 309 310 307 307 318 313 310 308
325 325 325 325 324 324 322 321 321 319 319 320 318 317 313 312 310 302 307 317 318 318 318 317 314 301 300 302 309 319 315 318 313 318 317 317 317 316 315 316 314 314 310
324 325 324 324 328 326 323 321 321 318 316 315 317 314 315 313 303 301 303 308 310 319 319 317 310 298 299 301 309 299 302 311 319 317 317 316 315 312 312 315 316 315 314
324 324 324 326 325 324 323 321 320 316 317 319 320 319 316 314 313 301 301 301 306 317 319 309 299 297 298 301 299 302 308 320 318 316 316 315 313 316 314 314 314 316 314
323 324 324 325 322 323 324 323 321 316 315 318 320 318 315 314 314 314 312 309 303 308 303 307 306 307 306 307 308 313 320 320 318 317 317 317 315 314 313 312 311 309 309
323 323 324 324 323 322 321 321 323 320 317 318 319 318 317 317 316 310 312 315 312 310 309 310 316 316 315 317 318 319 319 318 317 317 317 318 316 317 314 312 310 308 308
321 322 322 323 322 319 314 308 295 300 304 306 308 314 318 309 299 299 301 300 297 300 311 310 315 317 317 317 318 318 317 316 318 318 316 318 318 317 316 312 311 308 306
320 321 320 320 320 314 312 312 310 305 298 298 301 303 306 304 297 299 298 297 296 303 312 311 313 316 317 317 318 318 317 317 317 320 317 316 317 317 309 316 314 311 308
320 310 321 320 319 315 313 311 311 315 318 315 300 300 299 297 298 298 295 300 309 308 313 313 314 315 316 317 317 317 315 316 318 318 317 317 317 317 314 315 315 313 312
321 320 322 321 318 316 315 312 311 312 320 316 308 302 295 293 294 295 295 318 315 314 313 314 315 315 317 318 318 319 318 316 316 317 317 316 316 316 314 315 314 301 303
321 311 314 320 319 317 316 314 313 311 313 316 316 316 302 304 309 307 306 318 318 318 317 317 317 317 316 315 317 318 317 313 313 316 317 316 315 315 315 313 312 311 307
321 315 307 320 320 319 318 316 315 315 313 312 317 311 298 316 316 316 314 315 319 320 320 318 318 319 319 318 317 317 316 316 315 316 317 317 317 314 315 314 313 311 310
321 319 317 319 320 320 319 321 317 316 316 314 313 310 292 317 318 317 317 318 320 321 322 321 321 321 320 320 318 318 317 316 316 315 317 317 316 316 316 314 312 311 309
321 319 319 319 318 309 311 318 320 317 316 316 316 314 305 312 318 318 318 319 320 321 321 319 322 322 322 320 321 320 317 317 318 318 317 317 317 316 315 314 314 312 309
321 320 319 318 318 315 316 315 316 308 317 316 315 316 311 313 318 318 319 319 319 320 321 322 320 318 321 319 317 317 319 319 318 316 317 317 317 310 316 315 314 314 312
320 320 318 318 317 314 314 313 314 314 314 317 316 314 314 314 316 317 317 317 317 317 317 318 319 320 317 316 317 315 308 295 310 306 315 315 314 314 315 315 314 310 301
324 324 321 319 317 316 315 314 315 314 315 315 315 316 314 314 314 315 316 316 316 316 317 317 316 315 315 315 315 308 297 295 298 293 311 314 314 313 313 313 312 312 305
Wind_Speed
7 6 7 6 6 6 5 5 5 4 5 5 5 6 5 4 4 4 4 5 5 5 3 5 4 3 3 4 2 2 3 5 8 2 2 8 9 12 11 12 12 15 17
7 6 7 7 6 6 5 5 5 4 3 5 5 5 4 4 4 4 5 4 6 5 4 5 2 1 5 5 4 5 5 4 11 10 5 5 8 12 12 13 10 11 12
7 7 7 7 7 6 5 5 5 5 5 4 5 5 6 4 3 3 4 5 5 5 5 5 4 4 4 4 5 6 6 7 9 8 6 5 6 9 10 9 10 11 8
7 7 7 7 7 6 5 5 5 4 4 5 5 5 5 5 5 5 5 5 5 4 3 5 4 5 5 5 7 9 8 10 9 8 8 9 9 8 8 10 9 9 8
7 8 7 6 6 6 5 5 4 3 4 4 6 6 6 6 3 4 5 5 5 5 4 5 6 6 6 5 6 8 12 9 10 9 8 8 9 10 10 8 10 9 6
8 8 7 7 6 6 5 6 6 6 6 7 6 6 6 3 5 6 5 5 5 5 4 4 4 6 6 7 9 10 11 14 13 9 9 11 11 10 10 11 11 10 5
9 7 8 7 6 6 6 6 6 6 6 6 6 6 6 5 6 6 8 5 5 5 5 4 4 5 7 6 8 11 10 10 11 14 15 12 15 14 12 11 11 6 4
9 8 7 7 7 6 6 7 6 4 6 5 5 6 5 3 5 6 9 6 5 4 5 5 6 6 6 9 10 11 10 11 12 10 13 13 14 12 10 11 10 8 9
9 8 8 7 7 7 7 7 5 5 5 4 4 6 7 2 6 7 7 6 6 5 5 5 7 8 8 11 13 13 12 10 13 15 14 17 14 13 12 10 8 10 6
10 9 8 8 8 7 7 7 4 4 5 6 5 4 6 3 3 9 7 5 6 4 5 5 8 10 11 11 12 12 13 11 13 14 12 12 10 9 10 5 8 10 5
10 8 8 7 8 7 7 4 5 5 6 5 6 4 4 3 3 7 8 4 5 4 4 4 4 11 11 11 11 9 12 11 13 11 9 8 7 7 4 4 5 8 6
10 10 8 7 6 6 8 5 6 7 7 6 6 4 3 2 3 4 9 8 7 5 4 4 5 10 11 12 9 13 14 12 9 8 8 6 6 4 3 4 5 3 2
11 10 9 8 6 6 8 7 6 6 6 6 6 5 3 2 2 5 10 10 9 5 5 7 11 11 12 10 16 15 11 9 9 7 6 5 3 5 4 3 3 3 2
12 11 10 10 7 6 5 6 6 5 5 6 6 7 4 3 3 3 4 5 8 7 8 6 6 7 8 9 9 7 6 7 8 7 6 4 4 3 3 2 2 1 2
12 12 11 8 9 7 4 4 5 5 8 8 6 7 7 6 4 6 7 5 5 7 8 4 5 5 5 6 7 5 6 6 5 4 4 6 4 4 3 3 3 3 3
12 10 9 8 6 6 6 3 6 1 9 9 10 8 5 8 10 10 11 11 13 13 3 4 5 6 7 6 7 6 4 7 6 6 5 6 6 6 5 3 3 4 4
13 11 8 8 7 7 5 5 5 4 9 2 9 12 12 10 14 12 12 12 13 8 3 4 5 8 8 9 9 7 7 5 4 6 6 6 5 6 5 6 6 4 4
13 14 10 9 8 7 6 5 4 5 8 3 6 1 8 14 15 13 12 11 4 1 3 5 7 7 7 7 8 7 5 6 6 6 7 7 7 7 5 6 8 9 9
12 10 10 9 8 9 7 6 5 4 6 6 4 4 6 6 4 9 14 7 8 6 4 5 5 6 7 8 8 8 8 7 8 7 8 8 8 8 8 8 8 9 8
13 15 12 9 8 8 7 8 6 5 6 7 8 8 6 5 5 5 6 6 6 6 5 6 5 6 7 7 7 7 7 6 6 7 8 8 8 9 10 10 9 9 9
10 9 12 9 9 9 8 9 8 8 7 7 8 7 12 11 10 11 10 9 8 8 7 7 6 6 6 8 8 8 9 9 10 10 9 9 9 9 10 9 9 9 8
11 12 11 11 10 10 9 9 9 9 9 9 6 5 10 10 10 11 11 11 10 9 8 8 8 8 8 8 9 9 10 10 9 9 9 9 9 10 9 10 9 9 9
10 11 12 10 9 9 7 9 9 10 10 10 9 8 8 11 10 11 11 11 10 10 8 8 9 9 8 8 9 11 11 12 12 11 12 11 11 10 10 11 11 10 8
7 10 12 9 8 7 9 9 9 9 11 10 11 10 10 12 12 13 12 11 11 11 11 11 11 13 12 10 9 9 10 10 10 11 16 12 11 9 11 11 11 13 10
3 5 6 6 6 6 6 6 7 9 10 11 11 11 11 12 13 12 12 11 11 11 13 12 12 15 18 18 16 14 12 12 13 11 9 12 13 14 13 11 10 6 5
8 9 4 2 3 3 5 6 8 9 11 11 11 12 12 13 13 13 13 12 12 12 14 12 15 19 18 16 18 17 12 13 12 12 9 8 10 10 9 11 12 9 8
Wind_Direction
140 159 138 145 137 127 142 157 161 180 170 163 171 165 179 167 172 168 164 154 131 127 114 111 97 175 156 151 165 129 116 121 121 67 81 94 94 101 96 101 115 118 118
160 150 139 124 129 131 141 152 173 163 174 171 177 156 155 163 172 161 165 166 154 152 148 124 75 118 121 139 144 111 121 107 130 131 127 116 104 115 117 115 117 118 131
150 139 133 131 135 145 158 171 158 146 187 186 178 160 157 163 137 99 144 173 181 175 174 149 153 129 90 124 104 113 110 114 122 134 119 110 116 124 118 108 112 115 125
145 137 141 143 148 164 164 175 148 167 180 193 167 160 134 120 113 129 123 120 136 126 147 158 143 112 118 104 112 134 132 120 125 120 120 123 134 135 121 126 120 110 110
143 141 153 146 144 151 152 138 126 107 153 118 110 81 85 99 111 116 122 138 128 106 97 106 113 116 122 125 134 144 142 134 137 133 130 129 128 131 133 121 112 112 77
147 151 147 138 148 145 132 125 105 109 98 96 102 105 98 84 57 78 134 129 122 118 101 87 105 116 107 109 117 136 152 146 143 140 136 137 131 120 124 129 126 131 124
143 145 142 148 150 153 139 122 118 123 115 110 112 113 109 103 47 46 124 127 124 121 121 107 104 103 104 110 104 114 111 120 138 144 140 140 132 139 132 132 130 122 117
146 152 152 156 144 141 136 131 133 131 125 130 125 122 109 73 52 73 100 109 102 100 112 109 114 117 114 111 111 109 108 124 129 135 136 137 129 133 131 137 131 109 100
155 156 160 152 142 149 139 143 143 134 124 121 129 136 116 86 25 125 113 104 99 81 95 109 122 119 115 107 109 107 101 85 66 82 99 110 110 118 131 135 128 125 125
164 169 156 151 151 155 144 147 144 130 124 127 132 128 130 133 46 142 125 122 109 97 85 98 108 130 125 119 120 119 115 120 111 105 102 91 101 118 126 130 140 141 135
166 151 145 149 152 155 140 132 134 125 118 121 124 135 132 124 76 137 124 109 127 117 114 115 125 131 126 110 112 127 129 121 111 114 115 118 125 135 111 121 144 152 157
160 149 145 146 152 154 137 122 133 132 127 126 133 131 125 100 30 163 126 114 124 128 128 106 122 124 121 111 100 109 110 111 112 113 124 142 141 135 135 139 143 160 261
146 148 147 144 131 149 136 134 128 131 144 154 151 146 136 127 73 102 137 131 116 107 117 113 121 120 114 101 125 126 122 125 130 141 151 148 149 171 128 117 93 109 62
149 148 149 148 145 148 134 144 151 152 151 166 164 163 162 150 149 152 134 100 98 93 105 108 126 113 99 114 123 131 139 139 149 150 152 128 120 130 148 139 143 106 109
151 153 158 154 162 149 125 164 168 180 175 170 176 167 171 174 193 165 153 144 139 132 117 102 124 126 120 137 143 127 124 126 129 118 143 162 166 162 166 162 155 166 190
153 158 163 159 161 147 145 126 31 303 194 185 168 171 176 156 155 159 151 142 133 149 102 120 135 148 149 155 158 146 154 157 162 158 159 171 176 182 184 173 170 187 197
159 161 160 157 153 151 152 162 174 24 83 33 183 174 169 170 166 167 155 149 153 138 123 145 149 159 164 173 179 178 173 176 148 176 178 184 188 194 172 200 210 207 222
163 159 163 165 161 155 158 170 164 157 158 175 58 118 174 163 170 166 147 119 150 273 147 168 171 169 173 175 178 185 179 172 187 191 193 197 200 198 189 207 205 214 223
162 168 167 169 165 166 155 155 168 153 170 160 115 71 66 72 110 156 168 176 182 193 180 190 178 181 186 185 189 194 197 195 197 199 205 200 203 199 210 213 215 214 212
171 172 164 169 168 162 164 167 170 173 168 173 178 180 137 116 170 188 205 201 190 198 196 199 191 181 186 190 196 202 207 204 198 203 208 203 205 207 216 213 214 215 214
172 170 166 170 176 180 172 177 182 180 180 182 194 175 174 177 190 197 200 208 207 206 201 203 201 200 202 199 202 202 206 214 213 208 208 209 208 212 218 222 224 220 220
173 176 177 182 183 183 184 185 183 184 188 193 195 177 179 194 194 197 204 209 211 212 207 204 209 209 205 203 205 210 215 220 219 217 217 213 212 216 217 218 218 219 215
176 179 186 188 187 185 176 187 187 194 192 193 193 183 177 203 200 205 209 213 213 212 208 205 214 218 214 208 207 208 210 218 215 207 211 213 214 214 212 219 220 219 205
186 183 187 195 184 185 196 193 195 188 195 196 194 192 189 200 208 208 210 211 214 218 218 218 217 221 227 222 215 218 217 215 211 210 208 214 218 211 216 218 219 223 220
84 181 167 179 178 186 177 200 201 196 194 200 199 199 196 200 209 213 212 213 218 218 219 219 222 226 224 225 228 220 216 207 212 206 200 214 213 209 211 217 217 209 162
34 42 37 192 211 223 219 204 208 207 207 206 204 202 199 201 205 209 211 210 213 218 220 221 225 223 225 229 230 230 220 215 213 218 211 211 215 220 216 214 213 207 191